This demonstration page uses our WeatherBlox Daily Observations layout. Learn more.

Left ArrowRight Arrow

39.12711, -84.51439

Hourly Observations for September 6, 2016

Temp ( °F °C ) Dew Point ( °F °C ) Humidity (%) Winds ( mph kmh ) Pressure ( in mb ) Visibility ( mi km ) Precip ( " mm )
12:53 am 00:53 Clear 68 20 68 20 100 100 Calm 30.17 1022 7 11 0.00 0.00
1:53 am 01:53 Clear with Mist and Fog 67 19.4 67 19.4 100 100 Calm 30.18 1022 5 8 0.00 0.00
2:53 am 02:53 Clear with Mist and Fog 67 19.4 67 19.4 100 100 Calm 30.18 1022 5 8 0.00 0.00
3:41 am 03:41 Mostly Cloudy with Mist and Fog 67 19.4 67 19.4 100 100 Calm 30.15 1021 3 4 0.00 0.00
3:53 am 03:53 Mostly Cloudy with Mist and Fog 66 18.9 66 18.9 100 100 Calm 30.17 1022 1 2 0.00 0.00
3:59 am 03:59 Mostly Cloudy with Mist and Fog 66 18.9 66 18.9 100 100 Calm 30.15 1021 3 5 0.00 0.00
4:53 am 04:53 Partly Cloudy with Mist and Fog 67 19.4 67 19.4 100 100 Calm 30.17 1022 6 10 0.00 0.00
5:28 am 05:28 Clear with Mist and Fog 66 19 66 19 100 100 Calm 30.15 1021 3 4 0.00 0.00
5:43 am 05:43 Clear with Mist and Fog 66 18.9 66 18.9 100 100 Calm 30.15 1021 1 2 0.00 0.00
5:53 am 05:53 Clear with Mist and Fog 66 18.9 66 18.9 100 100 Calm 30.17 1022 1 2 0.00 0.00
6:10 am 06:10 Mostly Cloudy with Fog 66 19 66 19 100 100 Calm 30.15 1021 1 1 0.00 0.00
6:12 am 06:12 Mostly Cloudy with Fog 66 18.9 66 18.9 100 100 Calm 30.15 1021 0 0 0.00 0.00
6:21 am 06:21 Mostly Cloudy with Fog 64 17.8 64 17.8 100 100 Calm 30.15 1021 0 0 0.00 0.00
6:34 am 06:34 Mostly Cloudy with Fog 64 18 64 18 100 100 Calm 30.15 1021 1 1 0.00 0.00
6:40 am 06:40 Partly Cloudy with Mist and Fog 65 18.3 65 18.3 100 100 Calm 30.15 1021 1 2 0.00 0.00
6:45 am 06:45 Partly Cloudy with Mist and Fog 65 18.3 65 18.3 100 100 Calm 30.15 1021 3 5 0.00 0.00
6:53 am 06:53 Clear with Fog 65 18.3 65 18.3 100 100 Calm 30.18 1022 4 6 0.00 0.00
7:53 am 07:53 Sunny with Fog 65 18.3 65 18.3 100 100 Calm 30.19 1022 5 8 0.00 0.00
8:53 am 08:53 Sunny with Fog 71 21.7 69 20.6 94 94 Calm 30.19 1022 6 10 0.00 0.00
9:53 am 09:53 Sunny 76 24.4 71 21.7 85 85 SSW 5 7 30.19 1022 10 16 0.00 0.00
10:53 am 10:53 Sunny 81 27.2 72 22.2 74 74 S 3 6 30.19 1022 10 16 0.00 0.00
11:53 am 11:53 Sunny 86 30 69 20.6 57 57 WSW 10 17 30.19 1023 10 16 0.00 0.00
12:53 pm 12:53 Sunny 87 30.6 70 21.1 57 57 W 10 17 30.19 1022 10 16 0.00 0.00
1:53 pm 13:53 Partly Cloudy 88 31.1 71 21.7 57 57 WSW 7 11 30.18 1022 10 16 0.00 0.00
1:57 pm 13:57 Partly Cloudy 88 31.1 71 21.7 57 57 VRB 7 11 30.15 1021 10 16 0.00 0.00
2:53 pm 14:53 Partly Cloudy 89 31.7 69 20.6 52 52 SW 8 13 30.16 1021 10 16 0.00 0.00
2:56 pm 14:56 Partly Cloudy 90 32 70 21 52 52 WSW 9 15 30.15 1021 10 16 0.00 0.00
3:53 pm 15:53 Partly Cloudy 90 32.2 69 20.6 50 50 W 10 17 30.14 1021 10 16 0.00 0.00
4:53 pm 16:53 Partly Cloudy 89 31.7 68 20 50 50 W 12 19 30.13 1020 10 16 0.00 0.00
5:53 pm 17:53 Mostly Sunny 88 31.1 67 19.4 50 50 W 7 11 30.12 1020 10 16 0.00 0.00
6:53 pm 18:53 Sunny 86 30 67 19.4 53 53 WSW 8 13 30.11 1020 10 16 0.00 0.00
7:53 pm 19:53 Sunny 78 25.6 69 20.6 74 74 S 5 7 30.10 1019 10 16 0.00 0.00
8:53 pm 20:53 Clear 75 23.9 71 21.7 88 88 Calm 30.11 1020 10 16 0.00 0.00
9:53 pm 21:53 Clear 73 22.8 71 21.7 94 94 SSW 3 6 30.12 1020 10 16 0.00 0.00
10:53 pm 22:53 Clear 71 21.7 70 21.1 96 96 Calm 30.13 1020 10 16 0.00 0.00
11:53 pm 23:53 Clear 70 21.1 69 20.6 97 97 Calm 30.14 1021 9 14 0.00 0.00

Powered by AerisWeather